Location: Recife
(8.0585°S, 34.8848°W)
Time: 13:55:36
(UTC-03:00)

Tiros 1 despin weight - Pass Details

Date: 22 April 2026
Orbit: 555 x 591 km, 48.2° (Epoch: 14 May)

Event Time Altitude Azimuth Distance (km) Brightness Sun altitude
Rises 08:21:06 0° 188° (S) 2,752 ? 41.5°
Reaches altitude 10° 08:25:02 10° 152° (SSE) 1,844 ? 42.4°
Maximum altitude 08:26:16 11° 135° (SE) 1,770 ? 42.7°
Drops below altitude 10° 08:27:30 10° 117° (ESE) 1,837 ? 43.0°
Sets 08:31:22 0° 81° (E) 2,722 ? 43.8°
